Weather History for Michigan City, IN

Change the Weather History Date:

Monday, July 8, 2013

  Actual Average (KVPZ) Record (KVPZ)
Temperature  
Mean Temperature 75 °F 73 °F  
Max Temperature 82 °F 83 °F 94 °F (2007)
Min Temperature 68 °F 63 °F 55 °F (2004)
Degree Days  
Heating Degree Days 0 0  
Month to date heating degree days 0  
Since 1 June heating degree days 41  
Since 1 July heating degree days 0  
Cooling Degree Days 10 8  
Month to date cooling degree days 64  
Year to date cooling degree days 275  
Since 1 June cooling degree days 228  
Growing Degree Days 25 (Base 50)    
Moisture  
Dew Point 68 °F    
Average Humidity 81    
Maximum Humidity 94    
Minimum Humidity 66    
Precipitation  
Precipitation 0.00 in 0.15 in 0.57 in (2003)
Month to date precipitation 0.96  
Year to date precipitation 17.85  
Sea Level Pressure  
Sea Level Pressure 30.01 in    
Wind  
Wind Speed 8 mph (SSW)    
Max Wind Speed 15 mph    
Max Gust Speed 22 mph    
Visibility 10 miles    
Events Rain    
T = Trace of Precipitation, MM = Missing Value Source: NWS Daily Summary

Daily Weather History Graph

Daily Weather History Graph

Search for Another Location

Airport:

Trip Planner

Search our weather history database for the weather conditions in past years. The results will help you decide how hot, cold, wet, or windy it might be!

Date:

Astronomy

Jul. 08, 2013 Rise Set
Actual Time 5:20 AM CDT 8:23 PM CDT
Civil Twilight 4:47 AM CDT 8:57 PM CDT
Nautical Twilight 4:04 AM CDT 9:39 PM CDT
Astronomical Twilight 3:13 AM CDT 10:30 PM CDT
Moon 5:50 AM CDT (7/8) 8:24 PM CDT (7/8)
Length of Visible Light 16h 09m
Length of Day
15h 02m
New Moon, 0% of the Moon is Illuminated
Jul 8
New Moon
Jul 15
First Quarter
Jul 22
Full
Jul 29
Last Quarter
Aug 6
New

Hourly Weather History & Observations

Time (CDT) Temp. Heat Index Dew Point Humidity Pressure Visibility Wind Dir Wind Speed Gust Speed Precip Events Conditions
12:15 AM 75.2 °F - 68.0 °F 78% 30.03 in 10.0 mi SSW 9.2 mph - N/A   Clear
12:35 AM 75.2 °F - 68.0 °F 78% 30.03 in 10.0 mi SSW 9.2 mph - N/A   Clear
12:55 AM 75.2 °F - 68.0 °F 78% 30.02 in 10.0 mi SSW 8.1 mph - N/A   Clear
1:15 AM 73.4 °F - 68.0 °F 83% 30.02 in 10.0 mi SSW 8.1 mph - N/A   Clear
1:35 AM 73.4 °F - 68.0 °F 83% 30.02 in 10.0 mi SSW 9.2 mph - N/A   Clear
1:55 AM 73.4 °F - 68.0 °F 83% 30.02 in 10.0 mi SSW 8.1 mph - N/A   Clear
2:15 AM 73.4 °F - 68.0 °F 83% 30.02 in 10.0 mi SSW 6.9 mph - N/A   Clear
2:35 AM 73.4 °F - 68.0 °F 83% 30.02 in 10.0 mi SSW 5.8 mph - N/A   Clear
2:55 AM 73.4 °F - 68.0 °F 83% 30.02 in 10.0 mi SSW 6.9 mph - N/A   Clear
3:15 AM 73.4 °F - 68.0 °F 83% 30.01 in 10.0 mi SW 5.8 mph - N/A   Clear
3:35 AM 73.4 °F - 68.0 °F 83% 30.00 in 10.0 mi SSW 8.1 mph - N/A   Clear
3:55 AM 73.4 °F - 68.0 °F 83% 30.01 in 10.0 mi SSW 6.9 mph - N/A   Clear
4:15 AM 73.4 °F - 66.2 °F 78% 30.00 in 10.0 mi SSW 8.1 mph - N/A   Clear
4:35 AM 73.4 °F - 66.2 °F 78% 30.00 in 10.0 mi SSW 8.1 mph - N/A   Clear
4:55 AM 73.4 °F - 66.2 °F 78% 30.00 in 10.0 mi South 5.8 mph - N/A   Clear
5:15 AM 71.6 °F - 66.2 °F 83% 30.01 in 10.0 mi South 5.8 mph - N/A   Clear
5:55 AM 71.6 °F - 68.0 °F 88% 30.02 in 10.0 mi SSW 4.6 mph - N/A   Clear
6:15 AM 71.6 °F - 68.0 °F 88% 30.02 in 10.0 mi SSW 5.8 mph - N/A   Clear
6:35 AM 73.4 °F - 68.0 °F 83% 30.02 in 10.0 mi SSW 5.8 mph - N/A   Clear
6:55 AM 73.4 °F - 68.0 °F 83% 30.02 in 10.0 mi SW 10.4 mph - N/A   Clear
7:15 AM 73.4 °F - 68.0 °F 83% 30.02 in 10.0 mi SW 9.2 mph - N/A   Scattered Clouds
7:35 AM 73.4 °F - 68.0 °F 83% 30.02 in 10.0 mi SSW 6.9 mph - N/A   Mostly Cloudy
7:55 AM 75.2 °F - 68.0 °F 78% 30.03 in 10.0 mi SW 9.2 mph - N/A   Scattered Clouds
8:15 AM 77.0 °F - 68.0 °F 74% 30.04 in 10.0 mi SW 6.9 mph - N/A   Clear
8:35 AM 75.2 °F - 68.0 °F 78% 30.04 in 10.0 mi SW 6.9 mph - N/A   Clear
8:55 AM 75.2 °F - 68.0 °F 78% 30.04 in 10.0 mi SW 6.9 mph - N/A   Scattered Clouds
9:15 AM 73.4 °F - 68.0 °F 83% 30.05 in 10.0 mi WSW 6.9 mph - N/A Rain Light Rain
9:35 AM 73.4 °F - 68.0 °F 83% 30.05 in 10.0 mi West 4.6 mph - N/A Rain Light Rain
9:55 AM 73.4 °F - 69.8 °F 88% 30.07 in 10.0 mi Calm Calm - N/A   Light Drizzle
10:15 AM 75.2 °F - 68.0 °F 78% 30.07 in 10.0 mi SSW 4.6 mph - N/A   Mostly Cloudy
10:35 AM 73.4 °F - 68.0 °F 83% 30.07 in 10.0 mi SW 8.1 mph - N/A   Mostly Cloudy
10:55 AM 73.4 °F - 68.0 °F 83% 30.08 in 7.0 mi WSW 6.9 mph - N/A Rain Rain
11:15 AM 71.6 °F - 68.0 °F 88% 30.08 in 5.0 mi SW 6.9 mph - N/A Rain Rain
11:35 AM 71.6 °F - 68.0 °F 88% 30.07 in 5.0 mi SSW 8.1 mph - N/A Rain Rain
11:55 AM 69.8 °F - 68.0 °F 94% 30.06 in 7.0 mi SW 8.1 mph - N/A Rain Light Rain
12:15 PM 69.8 °F - 66.2 °F 88% 30.05 in 7.0 mi SSW 9.2 mph - N/A Rain Rain
12:35 PM 68.0 °F - 64.4 °F 88% 30.05 in 7.0 mi SSW 13.8 mph 21.9 mph N/A Rain Rain
12:55 PM 68.0 °F - 64.4 °F 88% 30.03 in 10.0 mi SSW 10.4 mph 17.3 mph N/A Rain Light Rain
1:15 PM 68.0 °F - 62.6 °F 83% 30.02 in 10.0 mi SSW 11.5 mph - N/A Rain Light Rain
1:35 PM 68.0 °F - 64.4 °F 88% 30.01 in 10.0 mi South 10.4 mph - N/A Rain Light Rain
1:55 PM 69.8 °F - 64.4 °F 83% 30.00 in 10.0 mi South 8.1 mph - N/A   Scattered Clouds
2:15 PM 69.8 °F - 68.0 °F 94% 29.99 in 10.0 mi South 8.1 mph - N/A Rain Light Rain
2:35 PM 73.4 °F - 68.0 °F 83% 29.99 in 10.0 mi SSW 10.4 mph - N/A   Scattered Clouds
2:55 PM 77.0 °F - 68.0 °F 74% 29.99 in 10.0 mi SSW 9.2 mph 16.1 mph N/A   Scattered Clouds
3:15 PM 78.8 °F - 68.0 °F 69% 29.98 in 10.0 mi SSW 12.7 mph 18.4 mph N/A   Scattered Clouds
3:35 PM 80.6 °F 83.9 °F 69.8 °F 70% 29.97 in 10.0 mi SSW 13.8 mph 20.7 mph N/A   Scattered Clouds
3:55 PM 80.6 °F 83.9 °F 69.8 °F 70% 29.97 in 10.0 mi SSW 13.8 mph 19.6 mph N/A   Mostly Cloudy
4:15 PM 80.6 °F 83.9 °F 69.8 °F 70% 29.98 in 10.0 mi SSW 15.0 mph 21.9 mph N/A   Scattered Clouds
4:35 PM 82.4 °F 86.3 °F 69.8 °F 66% 29.98 in 10.0 mi SSW 11.5 mph 21.9 mph N/A   Scattered Clouds
4:55 PM 80.6 °F 83.9 °F 69.8 °F 70% 29.98 in 10.0 mi SW 15.0 mph 19.6 mph N/A   Mostly Cloudy
5:15 PM 80.6 °F 83.9 °F 69.8 °F 70% 29.98 in 10.0 mi SW 9.2 mph - N/A   Overcast
5:35 PM 82.4 °F 86.3 °F 69.8 °F 66% 29.97 in 10.0 mi SW 8.1 mph - N/A   Overcast
5:55 PM 80.6 °F 83.9 °F 69.8 °F 70% 29.97 in 10.0 mi SW 8.1 mph - N/A   Mostly Cloudy
6:15 PM 80.6 °F 83.9 °F 69.8 °F 70% 29.96 in 10.0 mi SSW 6.9 mph - N/A   Scattered Clouds
6:35 PM 80.6 °F 83.9 °F 69.8 °F 70% 29.97 in 10.0 mi SSW 8.1 mph - N/A   Scattered Clouds
6:55 PM 78.8 °F - 69.8 °F 74% 29.97 in 10.0 mi SSW 4.6 mph - N/A   Scattered Clouds
7:15 PM 78.8 °F - 69.8 °F 74% 29.97 in 10.0 mi South 3.5 mph - N/A   Mostly Cloudy
7:35 PM 78.8 °F - 69.8 °F 74% 29.97 in 10.0 mi SW 6.9 mph - N/A   Overcast
7:55 PM 78.8 °F - 69.8 °F 74% 29.99 in 10.0 mi West 9.2 mph - N/A   Overcast
8:15 PM 77.0 °F - 69.8 °F 78% 29.99 in 10.0 mi SW 8.1 mph - N/A   Overcast
8:35 PM 75.2 °F - 69.8 °F 83% 29.98 in 10.0 mi SSW 4.6 mph - N/A Rain Light Rain
8:55 PM 73.4 °F - 71.6 °F 94% 29.98 in 10.0 mi SSW 4.6 mph - N/A   Mostly Cloudy
9:15 PM 73.4 °F - 71.6 °F 94% 29.99 in 10.0 mi Calm Calm - N/A   Scattered Clouds
9:35 PM 73.4 °F - 69.8 °F 88% 29.99 in 10.0 mi South 4.6 mph - N/A   Clear
9:55 PM 73.4 °F - 69.8 °F 88% 30.00 in 10.0 mi SSW 4.6 mph - N/A   Scattered Clouds
10:15 PM 73.4 °F - 69.8 °F 88% 30.00 in 10.0 mi SSW 6.9 mph - N/A Rain Rain
10:35 PM 73.4 °F - 69.8 °F 88% 30.01 in 10.0 mi WSW 5.8 mph - N/A Rain Light Rain
10:55 PM 73.4 °F - 69.8 °F 88% 30.01 in 10.0 mi WSW 4.6 mph - N/A   Mostly Cloudy
11:15 PM 71.6 °F - 69.8 °F 94% 30.01 in 10.0 mi WSW 4.6 mph - N/A   Clear
11:35 PM 71.6 °F - 68.0 °F 88% 30.01 in 10.0 mi Calm Calm - N/A   Scattered Clouds
11:55 PM 71.6 °F - 68.0 °F 88% 30.01 in 10.0 mi Calm Calm - N/A   Scattered Clouds